Time,TemperatureF,DewpointF,PressureIn,WindDirection,WindDirectionDegrees,WindSpeedMPH,WindSpeedGustMPH,Humidity,HourlyPrecipIn,Conditions,Clouds,dailyrainin,SoftwareType,DateUTC
2013-02-11 00:02:00,31.6,22.0,30.04,NNW,333,0.0,1.0,69,0.00,,,0.00,weatherlink.com 1.10,2013-02-11 07:02:00,
2013-02-11 00:17:00,30.3,22.0,30.04,NNW,333,0.0,1.0,72,0.00,,,0.00,weatherlink.com 1.10,2013-02-11 07:17:00,
2013-02-11 00:32:00,32.1,22.0,30.04,NNW,333,0.0,0.0,67,0.00,,,0.00,weatherlink.com 1.10,2013-02-11 07:32:00,
2013-02-11 00:47:00,32.7,23.0,30.04,NNW,333,0.0,0.0,68,0.00,,,0.00,weatherlink.com 1.10,2013-02-11 07:47:00,
2013-02-11 01:02:00,32.8,24.0,30.05,NNW,333,0.0,0.0,69,0.00,,,0.00,weatherlink.com 1.10,2013-02-11 08:02:00,
2013-02-11 01:17:00,28.8,20.0,30.05,NNW,333,0.0,0.0,71,0.00,,,0.00,weatherlink.com 1.10,2013-02-11 08:17:00,
2013-02-11 01:32:00,30.0,23.0,30.05,NNW,333,0.0,0.0,76,0.00,,,0.00,weatherlink.com 1.10,2013-02-11 08:32:00,
2013-02-11 01:47:00,27.7,19.0,30.05,NNW,333,0.0,0.0,71,0.00,,,0.00,weatherlink.com 1.10,2013-02-11 08:47:00,
2013-02-11 02:02:00,26.7,20.0,30.05,SW,222,0.0,2.0,77,0.00,,,0.00,weatherlink.com 1.10,2013-02-11 09:02:00,
2013-02-11 02:17:00,26.0,20.0,30.05,SSW,194,0.0,1.0,77,0.00,,,0.00,weatherlink.com 1.10,2013-02-11 09:17:00,
2013-02-11 02:32:00,25.9,20.0,30.05,SSW,211,0.0,2.0,77,0.00,,,0.00,weatherlink.com 1.10,2013-02-11 09:32:00,
2013-02-11 02:47:00,25.0,19.0,30.05,SSW,211,0.0,0.0,78,0.00,,,0.00,weatherlink.com 1.10,2013-02-11 09:47:00,
2013-02-11 03:02:00,28.4,21.0,30.04,SSW,212,0.0,0.0,75,0.00,,,0.00,weatherlink.com 1.10,2013-02-11 10:02:00,
2013-02-11 03:17:00,30.0,22.0,30.04,SSW,211,0.0,0.0,72,0.00,,,0.00,weatherlink.com 1.10,2013-02-11 10:17:00,
2013-02-11 03:33:00,26.7,19.0,30.04,SSW,211,0.0,1.0,73,0.00,,,0.00,weatherlink.com 1.10,2013-02-11 10:33:00,
2013-02-11 03:47:00,25.8,20.0,30.04,SSW,211,0.0,1.0,78,0.00,,,0.00,weatherlink.com 1.10,2013-02-11 10:47:00,
2013-02-11 04:17:00,25.4,19.0,30.04,SE,132,0.0,1.0,78,0.00,,,0.00,weatherlink.com 1.10,2013-02-11 11:17:00,
2013-02-11 04:32:00,25.0,20.0,30.04,SE,132,0.0,1.0,80,0.00,,,0.00,weatherlink.com 1.10,2013-02-11 11:32:00,
2013-02-11 04:47:00,25.3,19.0,30.04,SE,132,0.0,1.0,78,0.00,,,0.00,weatherlink.com 1.10,2013-02-11 11:47:00,
2013-02-11 05:02:00,24.2,19.0,30.04,SE,133,0.0,1.0,81,0.00,,,0.00,weatherlink.com 1.10,2013-02-11 12:02:00,
2013-02-11 05:17:00,24.7,19.0,30.04,SE,132,0.0,0.0,78,0.00,,,0.00,weatherlink.com 1.10,2013-02-11 12:17:00,
2013-02-11 05:33:00,23.1,18.0,30.05,SE,132,0.0,1.0,79,0.00,,,0.00,weatherlink.com 1.10,2013-02-11 12:33:00,
2013-02-11 05:48:00,22.4,17.0,30.05,SE,132,0.0,1.0,80,0.00,,,0.00,weatherlink.com 1.10,2013-02-11 12:48:00,
2013-02-11 06:03:00,21.7,17.0,30.06,North,356,1.0,3.0,81,0.00,,,0.00,weatherlink.com 1.10,2013-02-11 13:03:00,
2013-02-11 06:18:00,22.3,18.0,30.07,North,359,0.0,1.0,82,0.00,,,0.00,weatherlink.com 1.10,2013-02-11 13:18:00,
2013-02-11 06:33:00,21.8,17.0,30.07,North,360,0.0,1.0,83,0.00,,,0.00,weatherlink.com 1.10,2013-02-11 13:33:00,
2013-02-11 06:48:00,20.8,16.0,30.08,North,360,0.0,1.0,82,0.00,,,0.00,weatherlink.com 1.10,2013-02-11 13:48:00,
2013-02-11 07:03:00,20.6,16.0,30.09,North,360,1.0,1.0,81,0.00,,,0.00,weatherlink.com 1.10,2013-02-11 14:03:00,
2013-02-11 07:18:00,20.6,15.0,30.09,North,6,1.0,3.0,78,0.00,,,0.00,weatherlink.com 1.10,2013-02-11 14:18:00,
2013-02-11 07:33:00,22.3,15.0,30.09,North,7,0.0,1.0,74,0.00,,,0.00,weatherlink.com 1.10,2013-02-11 14:33:00,
2013-02-11 07:48:00,23.7,16.0,30.10,North,4,1.0,2.0,71,0.00,,,0.00,weatherlink.com 1.10,2013-02-11 14:48:00,
2013-02-11 08:03:00,25.3,16.0,30.11,NW,308,0.0,1.0,69,0.00,,,0.00,weatherlink.com 1.10,2013-02-11 15:03:00,
2013-02-11 08:18:00,26.3,16.0,30.11,NNW,335,1.0,2.0,66,0.00,,,0.00,weatherlink.com 1.10,2013-02-11 15:18:00,
2013-02-11 08:33:00,27.3,17.0,30.11,North,360,3.0,3.0,64,0.00,,,0.00,weatherlink.com 1.10,2013-02-11 15:33:00,
2013-02-11 08:48:00,27.4,16.0,30.11,North,351,2.0,5.0,62,0.00,,,0.00,weatherlink.com 1.10,2013-02-11 15:48:00,
2013-02-11 09:03:00,28.0,16.0,30.12,North,351,1.0,5.0,61,0.00,,,0.00,weatherlink.com 1.10,2013-02-11 16:03:00,
2013-02-11 09:18:00,29.4,17.0,30.11,NNW,337,1.0,4.0,59,0.00,,,0.00,weatherlink.com 1.10,2013-02-11 16:18:00,
2013-02-11 09:33:00,30.9,17.0,30.11,NNW,343,1.0,4.0,56,0.00,,,0.00,weatherlink.com 1.10,2013-02-11 16:33:00,
2013-02-11 09:48:00,32.8,18.0,30.11,NNW,335,1.0,4.0,54,0.00,,,0.00,weatherlink.com 1.10,2013-02-11 16:48:00,
2013-02-11 10:33:00,38.2,19.0,30.09,WNW,295,1.0,4.0,46,0.00,,,0.00,weatherlink.com 1.10,2013-02-11 17:33:00,
2013-02-11 10:48:00,40.4,19.0,30.09,NNE,12,2.0,3.0,42,0.00,,,0.00,weatherlink.com 1.10,2013-02-11 17:48:00,
2013-02-11 11:03:00,41.6,16.0,30.08,ENE,77,3.0,3.0,36,0.00,,,0.00,weatherlink.com 1.10,2013-02-11 18:03:00,
2013-02-11 11:18:00,42.7,15.0,30.07,WNW,303,0.0,3.0,33,0.00,,,0.00,weatherlink.com 1.10,2013-02-11 18:18:00,
2013-02-11 11:33:00,44.0,16.0,30.06,WSW,240,0.0,3.0,32,0.00,,,0.00,weatherlink.com 1.10,2013-02-11 18:33:00,
2013-02-11 11:49:00,45.0,14.0,30.06,WSW,238,1.0,3.0,28,0.00,,,0.00,weatherlink.com 1.10,2013-02-11 18:49:00,
2013-02-11 12:04:00,44.4,13.0,30.05,SSE,155,2.0,7.0,28,0.00,,,0.00,weatherlink.com 1.10,2013-02-11 19:04:00,
2013-02-11 12:19:00,44.9,12.0,30.04,SSW,211,3.0,6.0,26,0.00,,,0.00,weatherlink.com 1.10,2013-02-11 19:19:00,
2013-02-11 12:34:00,46.2,11.0,30.02,SSE,149,3.0,7.0,24,0.00,,,0.00,weatherlink.com 1.10,2013-02-11 19:34:00,
2013-02-11 12:49:00,47.2,7.0,30.02,SW,228,3.0,9.0,19,0.00,,,0.00,weatherlink.com 1.10,2013-02-11 19:49:00,
2013-02-11 13:04:00,47.0,5.0,30.01,SE,140,5.0,13.0,18,0.00,,,0.00,weatherlink.com 1.10,2013-02-11 20:04:00,
2013-02-11 13:19:00,47.2,5.0,30.00,SE,129,2.0,8.0,18,0.00,,,0.00,weatherlink.com 1.10,2013-02-11 20:19:00,
2013-02-11 13:34:00,47.0,5.0,30.00,West,260,3.0,8.0,18,0.00,,,0.00,weatherlink.com 1.10,2013-02-11 20:34:00,
2013-02-11 13:49:00,47.3,7.0,29.98,SSW,198,2.0,7.0,19,0.00,,,0.00,weatherlink.com 1.10,2013-02-11 20:49:00,
2013-02-11 14:04:00,48.4,6.0,29.97,ENE,67,2.0,8.0,18,0.00,,,0.00,weatherlink.com 1.10,2013-02-11 21:04:00,
2013-02-11 14:19:00,48.5,4.0,29.97,WSW,248,4.0,10.0,16,0.00,,,0.00,weatherlink.com 1.10,2013-02-11 21:19:00,
2013-02-11 14:34:00,47.5,2.0,29.97,SSW,200,8.0,11.0,15,0.00,,,0.00,weatherlink.com 1.10,2013-02-11 21:34:00,
2013-02-11 14:49:00,46.2,2.0,29.97,SSW,212,4.0,8.0,16,0.00,,,0.00,weatherlink.com 1.10,2013-02-11 21:49:00,
2013-02-11 15:04:00,45.5,4.0,29.97,West,276,4.0,9.0,18,0.00,,,0.00,weatherlink.com 1.10,2013-02-11 22:04:00,
2013-02-11 15:19:00,45.0,5.0,29.97,WSW,248,1.0,9.0,19,0.00,,,0.00,weatherlink.com 1.10,2013-02-11 22:19:00,
2013-02-11 15:34:00,44.8,6.0,29.97,WSW,252,4.0,10.0,20,0.00,,,0.00,weatherlink.com 1.10,2013-02-11 22:34:00,
2013-02-11 15:49:00,44.1,9.0,29.98,SW,224,2.0,8.0,24,0.00,,,0.00,weatherlink.com 1.10,2013-02-11 22:49:00,
2013-02-11 16:04:00,43.5,11.0,29.98,WSW,248,4.0,11.0,26,0.00,,,0.00,weatherlink.com 1.10,2013-02-11 23:04:00,
2013-02-11 16:19:00,42.5,13.0,29.99,WNW,296,2.0,16.0,30,0.00,,,0.00,weatherlink.com 1.10,2013-02-11 23:19:00,
2013-02-11 16:34:00,41.9,15.0,29.99,WNW,287,2.0,10.0,33,0.00,,,0.00,weatherlink.com 1.10,2013-02-11 23:34:00,
2013-02-11 16:49:00,41.2,15.0,29.98,WNW,290,3.0,6.0,35,0.00,,,0.00,weatherlink.com 1.10,2013-02-11 23:49:00,
2013-02-11 17:04:00,40.8,16.0,29.98,WSW,256,2.0,9.0,36,0.00,,,0.00,weatherlink.com 1.10,2013-02-12 00:04:00,
2013-02-11 17:19:00,40.9,14.0,29.99,SW,220,1.0,6.0,33,0.00,,,0.00,weatherlink.com 1.10,2013-02-12 00:19:00,
2013-02-11 17:34:00,41.0,14.0,29.99,WSW,257,0.0,3.0,33,0.00,,,0.00,weatherlink.com 1.10,2013-02-12 00:34:00,
2013-02-11 17:49:00,40.2,18.0,30.01,North,356,5.0,9.0,41,0.00,,,0.00,weatherlink.com 1.10,2013-02-12 00:49:00,
2013-02-11 18:04:00,38.4,20.0,30.02,NNW,337,4.0,8.0,48,0.00,,,0.00,weatherlink.com 1.10,2013-02-12 01:04:00,
2013-02-11 18:19:00,37.2,21.0,30.03,NNW,339,3.0,8.0,52,0.00,,,0.00,weatherlink.com 1.10,2013-02-12 01:19:00,
2013-02-11 18:34:00,36.7,20.0,30.03,NNE,22,2.0,10.0,52,0.00,,,0.00,weatherlink.com 1.10,2013-02-12 01:34:00,
2013-02-11 18:50:00,36.6,21.0,30.04,North,11,8.0,8.0,54,0.00,,,0.00,weatherlink.com 1.10,2013-02-12 01:50:00,
2013-02-11 19:05:00,35.7,22.0,30.05,North,360,2.0,9.0,57,0.00,,,0.00,weatherlink.com 1.10,2013-02-12 02:05:00,
2013-02-11 19:20:00,35.1,22.0,30.05,NW,326,3.0,8.0,59,0.00,,,0.00,weatherlink.com 1.10,2013-02-12 02:20:00,
2013-02-11 19:35:00,34.6,22.0,30.05,NW,314,1.0,9.0,60,0.00,,,0.00,weatherlink.com 1.10,2013-02-12 02:35:00,
2013-02-11 19:49:00,34.4,21.0,30.06,NNW,347,9.0,14.0,59,0.00,,,0.00,weatherlink.com 1.10,2013-02-12 02:49:00,
2013-02-11 20:04:00,34.2,21.0,30.06,North,1,3.0,8.0,58,0.00,,,0.00,weatherlink.com 1.10,2013-02-12 03:04:00,
2013-02-11 20:20:00,34.1,21.0,30.07,NNW,333,1.0,7.0,59,0.00,,,0.00,weatherlink.com 1.10,2013-02-12 03:20:00,
2013-02-11 20:34:00,34.0,20.0,30.07,NNE,32,2.0,4.0,58,0.00,,,0.00,weatherlink.com 1.10,2013-02-12 03:34:00,
2013-02-11 20:50:00,34.1,21.0,30.07,NNW,337,1.0,5.0,58,0.00,,,0.00,weatherlink.com 1.10,2013-02-12 03:50:00,
2013-02-11 21:04:00,34.2,20.0,30.06,NE,44,0.0,3.0,57,0.00,,,0.00,weatherlink.com 1.10,2013-02-12 04:04:00,
2013-02-11 21:19:00,34.0,19.0,30.05,North,8,2.0,6.0,55,0.00,,,0.00,weatherlink.com 1.10,2013-02-12 04:19:00,
2013-02-11 21:34:00,33.8,19.0,30.05,NNE,29,0.0,4.0,56,0.00,,,0.00,weatherlink.com 1.10,2013-02-12 04:34:00,
2013-02-11 21:50:00,33.6,20.0,30.05,WNW,288,0.0,1.0,58,0.00,,,0.00,weatherlink.com 1.10,2013-02-12 04:50:00,
2013-02-11 22:04:00,32.7,20.0,30.04,NNW,337,0.0,3.0,59,0.00,,,0.00,weatherlink.com 1.10,2013-02-12 05:04:00,
2013-02-11 22:19:00,32.1,20.0,30.04,NNW,336,0.0,4.0,61,0.00,,,0.00,weatherlink.com 1.10,2013-02-12 05:19:00,
2013-02-11 22:34:00,32.0,20.0,30.04,NNW,336,2.0,5.0,62,0.00,,,0.00,weatherlink.com 1.10,2013-02-12 05:34:00,
2013-02-11 22:49:00,31.5,20.0,30.04,North,359,0.0,5.0,63,0.00,,,0.00,weatherlink.com 1.10,2013-02-12 05:49:00,
2013-02-11 23:04:00,31.0,20.0,30.04,WNW,298,0.0,5.0,65,0.00,,,0.00,weatherlink.com 1.10,2013-02-12 06:04:00,
2013-02-11 23:20:00,30.8,21.0,30.04,NNW,333,1.0,4.0,66,0.00,,,0.00,weatherlink.com 1.10,2013-02-12 06:20:00,
2013-02-11 23:34:00,30.6,20.0,30.04,NW,318,2.0,5.0,66,0.00,,,0.00,weatherlink.com 1.10,2013-02-12 06:34:00,
2013-02-11 23:50:00,30.6,21.0,30.04,North,351,4.0,7.0,67,0.00,,,0.00,weatherlink.com 1.10,2013-02-12 06:50:00,